Pocatello, ID

10:58 PM MDT on May 25, 2017 (GMT -0600)
Pocatello Regional

Weather History for KPIH - May, 2012

Change the Weather History Date:

Sunday, May 13, 2012

  Actual Average Record
Temperature  
Mean Temperature 54 °F 53 °F  
Max Temperature 76 °F 67 °F 90 °F (2013)
Min Temperature 32 °F 39 °F 23 °F (2014)
Degree Days  
Heating Degree Days 11 12  
Month to date heating degree days 187 179  
Since 1 July heating degree days 6345 6873  
Cooling Degree Days 0 0  
Month to date cooling degree days 0 0  
Year to date cooling degree days 0 0  
Growing Degree Days 4 (Base 50)    
Moisture  
Dew Point 24 °F    
Average Humidity 41    
Maximum Humidity 75    
Minimum Humidity 7    
Precipitation  
Precipitation 0.00 in 0.05 in 0.56 in (1957)
Month to date precipitation T 0.61  
Year to date precipitation 4.29 4.98  
Snow  
Snow 0.00 in - - ()
Month to date snowfall 0.0  
Since 1 July snowfall 15.8  
Snow Depth 0.00 in    
Sea Level Pressure  
Sea Level Pressure 30.23 in    
Wind  
Wind Speed 3 mph (WSW)    
Max Wind Speed 13 mph    
Max Gust Speed 16 mph    
Visibility 10 miles    
Events      
T = Trace of Precipitation, MM = Missing Value Source: NWS Daily Summary

Daily Weather History Graph

Daily Weather History Graph

Search for Another Location

Airport or City:

Trip Planner

Search our weather history database for the weather conditions in past years. The results will help you decide how hot, cold, wet, or windy it might be!

Date:

Astronomy

May. 13, 2012 Rise Set
Actual Time 6:08 AM MDT 8:45 PM MDT
Civil Twilight 5:36 AM MDT 9:17 PM MDT
Nautical Twilight 4:56 AM MDT 9:58 PM MDT
Astronomical Twilight 4:10 AM MDT 10:44 PM MDT
Moon 2:26 AM MDT (5/13) 2:00 PM MDT (5/13)
Length of Visible Light 15h 41m
Length of Day
14h 36m
Last Quarter, 41% of the Moon is Illuminated
May 13
Last Quarter
May 20
New
May 28
First Quarter
Jun 4
Full
Jun 11
Last Quarter

Hourly Weather History & Observations

Time (MDT) Temp. Windchill Dew Point Humidity Pressure Visibility Wind Dir Wind Speed Gust Speed Precip Events Conditions
12:53 AM 45.0 °F 43.5 °F 27.0 °F 49% 30.22 in 10.0 mi SSE 3.5 mph - N/A   Clear
1:53 AM 42.1 °F 40.2 °F 27.0 °F 55% 30.23 in 10.0 mi East 3.5 mph - N/A   Clear
2:53 AM 41.0 °F - 27.0 °F 57% 30.22 in 10.0 mi Calm Calm - N/A   Clear
3:53 AM 41.0 °F 38.0 °F 26.1 °F 55% 30.23 in 10.0 mi East 4.6 mph - N/A   Clear
4:53 AM 36.0 °F - 25.0 °F 64% 30.25 in 10.0 mi Calm Calm - N/A   Clear
5:53 AM 33.8 °F 27.7 °F 24.8 °F 70% 30.31 in 10.0 mi WSW 6.9 mph - N/A   Clear
6:53 AM 34.0 °F - 26.1 °F 73% 30.28 in 10.0 mi Calm Calm - N/A   Clear
7:53 AM 43.0 °F - 26.1 °F 51% 30.29 in 10.0 mi Calm Calm - N/A   Clear
8:53 AM 51.8 °F - 30.2 °F 44% 30.35 in 10.0 mi Calm Calm - N/A   Clear
9:53 AM 57.9 °F - 30.9 °F 36% 30.30 in 10.0 mi WSW 5.8 mph - N/A   Clear
10:53 AM 62.1 °F - 28.0 °F 28% 30.29 in 10.0 mi WSW 4.6 mph - N/A   Clear
11:53 AM 64.9 °F - 30.0 °F 27% 30.28 in 10.0 mi West 6.9 mph - N/A   Clear
12:53 PM 70.0 °F - 32.0 °F 25% 30.25 in 10.0 mi Variable 5.8 mph - N/A   Clear
1:53 PM 73.0 °F - 28.0 °F 19% 30.23 in 10.0 mi NW 8.1 mph - N/A   Clear
2:53 PM 73.9 °F - 19.0 °F 13% 30.22 in 10.0 mi NW 11.5 mph - N/A   Clear
3:53 PM 73.9 °F - 18.0 °F 12% 30.20 in 10.0 mi Variable 3.5 mph - N/A   Clear
4:53 PM 75.0 °F - 19.0 °F 12% 30.19 in 10.0 mi NW 8.1 mph - N/A   Clear
5:53 PM 75.0 °F - 17.1 °F 11% 30.18 in 10.0 mi Calm Calm - N/A   Clear
6:53 PM 73.9 °F - 5.0 °F 7% 30.17 in 10.0 mi Calm Calm - N/A   Clear
7:53 PM 71.1 °F - 16.0 °F 12% 30.15 in 10.0 mi Calm Calm - N/A   Clear
8:53 PM 60.1 °F - 24.1 °F 25% 30.16 in 10.0 mi Calm Calm - N/A   Clear
9:53 PM 52.0 °F - 19.0 °F 27% 30.17 in 10.0 mi SE 3.5 mph - N/A   Clear
10:53 PM 53.1 °F - 25.0 °F 34% 30.16 in 10.0 mi East 3.5 mph - N/A   Clear
11:53 PM 46.9 °F - 27.0 °F 46% 30.16 in 10.0 mi Calm Calm - N/A   Clear